EW3770 Weather Reports


Display with metric or nautical units.
time (UTC)temp
F
wind
direction
speed
MPH
gust
MPH
rain 1hr
in
rain 24hr
in
rain mn
in
humidity
%
barometer
mb
20260831041803 66 360 0.0 2.0 0.00 0.23 0.18 67 1027.4
20260831040003 67 360 1.0 3.0 0.00 0.23 0.18 64 1027.4
20260831035403 67 360 0.0 1.0 0.00 0.23 0.18 63 1027.4
20260831034503 67 360 1.0 4.0 0.00 0.23 0.18 61 1027.4
20260831033603 67 360 0.0 3.0 0.00 0.23 0.18 61 1027.4
20260831032703 67 360 0.0 2.0 0.00 0.23 0.18 63 1027.4
20260831031803 68 360 0.0 2.0 0.00 0.23 0.18 63 1027.4
20260831030903 68 360 0.0 1.0 0.00 0.23 0.18 65 1027.4
20260831030024 68 0 0.0 0.0 0.00 0.23 0.18 63 1027.4
20260831025403 69 0 0.0 0.0 0.00 0.23 0.18 62 1027.4
20260831024524 70 0 0.0 0.0 0.00 0.23 0.18 59 1027.4
20260831023603 70 0 0.0 0.0 0.00 0.23 0.18 56 1027.4
20260831022703 72 0 0.0 0.0 0.00 0.23 0.18 54 1027.4
20260831021803 72 0 0.0 0.0 0.00 0.23 0.18 49 1027.4
20260831020903 73 0 0.0 0.0 0.00 0.23 0.18 49 1027.4
20260831020003 74 360 0.0 3.0 0.00 0.23 0.18 47 1027.4
20260831015424 74 360 0.0 3.0 0.00 0.23 0.18 48 1027.4
20260831014503 75 360 1.0 4.0 0.00 0.23 0.18 46 1027.4
20260831013624 76 360 1.0 3.0 0.00 0.23 0.18 46 1027.4
20260831012703 76 360 1.0 6.0 0.00 0.23 0.18 46 1027.4
20260831011803 76 360 2.0 8.0 0.00 0.24 0.18 46 1027.4
20260831010924 77 360 1.0 6.0 0.00 0.24 0.18 46 1027.4
20260831010003 77 350 3.0 6.0 0.00 0.29 0.18 45 1027.4
20260831005424 77 2 3.0 9.0 0.00 0.29 0.18 45 1027.4
20260831004503 77 27 3.0 9.0 0.00 0.29 0.18 44 1027.4
20260831003603 77 54 3.0 6.0 0.00 0.29 0.18 45 1027.4
20260831002724 78 67 2.0 6.0 0.00 0.29 0.18 48 1027.4
20260831001803 78 59 3.0 5.0 0.00 0.29 0.18 49 1027.4
20260831000903 78 62 2.0 5.0 0.00 0.29 0.18 46 1027.4
20260831000003 78 76 3.0 8.0 0.00 0.29 0.18 44 1027.4
20260830235424 78 92 2.0 8.0 0.00 0.29 0.18 47 1027.4
20260830234503 77 105 2.0 4.0 0.00 0.29 0.18 51 1027.4
20260830233603 77 106 1.0 4.0 0.00 0.29 0.18 54 1027.4
20260830232703 77 106 0.0 1.0 0.00 0.29 0.18 51 1027.4
20260830231803 76 106 0.0 2.0 0.00 0.29 0.18 52 1027.4
20260830230903 74 106 2.0 7.0 0.00 0.29 0.18 55 1027.4
20260830230024 74 122 4.0 11.0 0.00 0.29 0.18 58 1027.4
20260830225403 76 110 2.0 10.0 0.00 0.30 0.18 61 1027.4
20260830224503 77 64 0.0 1.0 0.00 0.30 0.18 58 1027.4
20260830223603 78 30 1.0 6.0 0.00 0.30 0.18 50 1027.4
20260830222703 78 335 0.0 3.0 0.00 0.30 0.18 45 1027.4
20260830221824 78 334 0.0 2.0 0.00 0.30 0.18 44 1027.4
20260830220903 78 335 1.0 3.0 0.00 0.30 0.18 46 1027.4
20260830220024 77 318 1.0 5.0 0.00 0.30 0.18 48 1027.4
20260830215403 77 300 1.0 4.0 0.00 0.30 0.18 47 1027.4
20260830214524 77 278 0.0 4.0 0.00 0.30 0.18 46 1027.4
20260830213603 78 228 0.0 1.0 0.00 0.30 0.18 50 1027.4
20260830212703 78 227 1.0 4.0 0.00 0.30 0.18 50 1027.4
20260830211803 78 210 0.0 4.0 0.00 0.30 0.18 48 1027.4
20260830210924 78 176 0.0 3.0 0.00 0.30 0.18 49 1027.4
20260830210003 78 191 1.0 6.0 0.00 0.30 0.18 48 1027.4
20260830205403 78 167 1.0 5.0 0.00 0.30 0.18 50 1027.4
20260830204524 79 122 2.0 7.0 0.00 0.30 0.18 46 1027.4
20260830203603 79 122 2.0 8.0 0.00 0.30 0.18 47 1027.4
20260830202703 78 123 2.0 11.0 0.00 0.30 0.18 49 1027.4
20260830201803 78 144 1.0 11.0 0.00 0.30 0.18 50 1027.4
20260830200903 79 133 2.0 8.0 0.00 0.30 0.18 52 1027.4
20260830200024 79 130 2.0 7.0 0.00 0.30 0.18 52 1027.4
20260830195403 79 135 3.0 15.0 0.00 0.30 0.18 53 1027.4
20260830194503 79 136 3.0 15.0 0.00 0.30 0.18 52 1027.4
20260830193603 78 167 2.0 8.0 0.00 0.30 0.18 55 1027.4
20260830192724 78 147 2.0 9.0 0.00 0.30 0.18 56 1027.4
20260830191803 78 136 3.0 11.0 0.00 0.30 0.18 54 1027.4
20260830190903 77 146 2.0 13.0 0.00 0.30 0.18 55 1027.4
20260830190003 77 137 2.0 12.0 0.00 0.30 0.18 57 1027.4
20260830185403 76 132 4.0 15.0 0.00 0.30 0.18 54 1027.4
20260830184524 77 138 3.0 11.0 0.00 0.30 0.18 56 1027.4
20260830183603 76 137 3.0 12.0 0.00 0.30 0.18 56 1027.4
20260830182703 76 139 4.0 12.0 0.00 0.30 0.18 57 1027.4
20260830181803 76 157 2.0 12.0 0.00 0.30 0.18 55 1027.4
20260830180903 76 163 3.0 7.0 0.00 0.30 0.18 58 1027.4
20260830180003 75 161 2.0 9.0 0.00 0.30 0.18 59 1027.4
20260830175403 75 171 3.0 9.0 0.00 0.30 0.18 61 1027.4
20260830174503 75 152 3.0 9.0 0.00 0.30 0.18 64 1027.4
20260830173603 74 155 3.0 8.0 0.00 0.30 0.18 64 1027.4
20260830172724 74 157 3.0 9.0 0.00 0.30 0.18 64 1027.4
20260830171803 73 137 3.0 9.0 0.00 0.47 0.18 65 1027.4
20260830170903 73 156 3.0 7.0 0.00 0.55 0.18 68 1027.4
20260830170003 72 147 3.0 12.0 0.00 0.55 0.18 69 1027.4
20260830165403 72 165 2.0 12.0 0.00 0.55 0.18 71 1027.4
20260830164503 70 165 3.0 10.0 0.00 0.55 0.18 72 1027.4
20260830163603 69 161 2.0 7.0 0.00 0.55 0.18 73 1027.4
20260830162703 68 143 2.0 8.0 0.00 0.55 0.18 77 1027.4
20260830161803 66 162 2.0 5.0 0.00 0.55 0.18 80 1027.4
20260830160903 66 172 2.0 10.0 0.00 0.55 0.18 82 1027.4
20260830160003 65 174 1.0 11.0 0.00 0.55 0.18 85 1027.4
20260830155403 65 158 1.0 6.0 0.00 0.55 0.18 87 1027.4
20260830154503 65 168 0.0 1.0 0.00 0.55 0.18 90 1027.4
20260830153603 64 166 0.0 2.0 0.00 0.55 0.18 91 1027.4
20260830152703 63 196 0.0 2.0 0.00 0.55 0.18 92 1027.4
20260830151803 63 227 0.0 3.0 0.00 0.55 0.18 92 1027.4
20260830150903 63 220 0.0 3.0 0.00 0.55 0.18 93 1027.4
20260830150003 62 216 0.0 3.0 0.00 0.55 0.18 94 1027.4
20260830145424 62 215 0.0 2.0 0.00 0.55 0.18 93 1027.4
20260830144503 62 200 0.0 6.0 0.00 0.55 0.18 92 1027.4
20260830143624 63 166 0.0 4.0 0.00 0.55 0.18 94 1027.4
20260830142703 62 165 0.0 2.0 0.00 0.59 0.18 95 1027.4
20260830141803 60 168 0.0 5.0 0.00 0.65 0.18 95 1027.4
20260830140903 59 168 1.0 5.0 0.00 0.72 0.18 94 1027.4
20260830140003 59 168 0.0 4.0 0.00 0.72 0.18 93 1027.4
20260830135424 59 168 0.0 1.0 0.00 0.72 0.18 93 1027.4
20260830134503 59 168 0.0 1.0 0.00 0.72 0.18 93 1027.4
20260830133603 59 167 1.0 5.0 0.00 0.72 0.18 93 1027.4
20260830132703 59 166 0.0 4.0 0.00 0.72 0.18 93 1027.4
20260830131803 59 164 0.0 5.0 0.01 0.72 0.18 93 1027.4
20260830130924 59 158 1.0 5.0 0.01 0.72 0.18 93 1027.4
20260830130003 59 155 0.0 1.0 0.01 0.72 0.18 92 1027.4
20260830125403 60 155 0.0 1.0 0.01 0.72 0.18 92 1027.4
20260830124503 60 150 1.0 3.0 0.01 0.72 0.18 92 1027.4
20260830123603 60 0 0.0 0.0 0.02 0.72 0.18 92 1027.4
20260830122703 60 92 0.0 1.0 0.03 0.72 0.18 92 1027.4
20260830121803 60 90 2.0 6.0 0.17 0.71 0.17 92 1027.4
20260830120903 60 101 3.0 7.0 0.17 0.71 0.17 92 1027.4
20260830120025 59 259 0.0 2.0 0.17 0.71 0.17 91 1027.4
20260830115403 60 0 0.0 0.0 0.17 0.71 0.17 90 1027.4
20260830114503 60 259 0.0 2.0 0.17 0.71 0.17 90 1027.4
20260830113603 60 259 1.0 4.0 0.16 0.70 0.16 90 1027.4
20260830112703 61 224 4.0 12.0 0.15 0.69 0.15 90 1027.4
20260830111803 60 203 2.0 7.0 0.00 0.54 0.00 90 1027.4
20260830110903 60 0 0.0 0.0 0.00 0.54 0.00 90 1027.4
20260830110004 60 0 0.0 0.0 0.00 0.54 0.00 90 1027.4
20260830105424 60 0 0.0 0.0 0.00 0.54 0.00 89 1027.4
20260830104503 60 0 0.0 0.0 0.00 0.54 0.00 89 1027.4
20260830103624 60 0 0.0 0.0 0.00 0.54 0.00 89 1027.4
20260830102703 60 0 0.0 0.0 0.00 0.54 0.00 89 1027.4
20260830101803 60 202 0.0 1.0 0.00 0.56 0.00 88 1027.4
20260830100924 60 0 0.0 0.0 0.00 0.56 0.00 87 1027.4
20260830100003 61 0 0.0 0.0 0.00 0.56 0.00 86 1027.4
20260830095424 61 0 0.0 0.0 0.00 0.56 0.00 85 1027.4
20260830094503 61 0 0.0 0.0 0.00 0.56 0.00 85 1027.4
20260830093603 62 202 0.0 1.0 0.00 0.56 0.00 85 1027.4
20260830092703 62 202 0.0 2.0 0.00 0.56 0.00 85 1027.4
20260830091803 62 201 1.0 6.0 0.00 0.56 0.00 85 1027.4
20260830090903 62 201 1.0 4.0 0.00 0.56 0.00 85 1027.4
20260830090004 62 201 0.0 1.0 0.00 0.56 0.00 85 1027.4
20260830085403 63 201 0.0 1.0 0.00 0.56 0.00 85 1027.4
20260830084503 63 196 1.0 8.0 0.00 0.56 0.00 85 1027.4
20260830083603 63 158 1.0 5.0 0.00 0.56 0.00 85 1027.4
20260830082703 63 137 1.0 5.0 0.00 0.56 0.00 84 1027.4
20260830081824 63 139 1.0 6.0 0.00 0.56 0.00 84 1027.4
20260830080903 64 167 1.0 6.0 0.00 0.56 0.00 84 1027.4
20260830080003 64 131 2.0 8.0 0.00 0.56 0.00 83 1027.4
20260830075403 64 135 2.0 8.0 0.00 0.56 0.00 83 1027.4
20260830074524 64 131 2.0 9.0 0.00 0.56 0.00 82 1027.4
20260830073624 64 167 2.0 6.0 0.00 0.56 0.00 82 1027.4
20260830072703 64 127 0.0 5.0 0.00 0.56 0.00 83 1027.4
20260830071824 64 123 3.0 12.0 0.00 0.56 0.00 83 1027.4
20260830070903 64 138 3.0 12.0 0.00 0.56 0.00 82 1027.4
20260830070003 64 162 2.0 9.0 0.00 0.56 0.00 84 1027.4
20260830065403 64 174 1.0 6.0 0.00 0.56 0.00 84 1027.4
20260830064503 64 179 2.0 8.0 0.00 0.56 0.00 84 1027.4
20260830063603 64 188 4.0 9.0 0.00 0.56 0.00 84 1027.4
20260830062724 63 162 3.0 9.0 0.00 0.56 0.00 82 1027.4
20260830061824 62 181 3.0 8.0 0.00 0.56 0.00 81 1027.4
20260830060903 62 207 1.0 8.0 0.00 0.56 0.00 83 1027.4
20260830060003 62 174 1.0 8.0 0.01 0.56 0.00 84 1027.4
20260830055403 61 168 1.0 3.0 0.01 0.56 0.56 82 1027.4
20260830054503 62 132 1.0 8.0 0.03 0.56 0.56 80 1027.4
20260830053603 62 133 2.0 10.0 0.04 0.56 0.56 80 1027.4
20260830052703 62 127 5.0 17.0 0.04 0.56 0.56 80 1027.4
20260830051803 61 123 7.0 14.0 0.05 0.56 0.56 80 1027.4
20260830050903 61 145 4.0 16.0 0.05 0.56 0.56 80 1027.4
20260830050003 62 180 3.0 8.0 0.04 0.55 0.55 78 1027.4
20260830045424 63 175 2.0 8.0 0.04 0.55 0.55 77 1027.4
20260830044503 64 149 4.0 12.0 0.02 0.53 0.53 77 1027.4
20260830043603 64 157 4.0 11.0 0.01 0.52 0.52 76 1027.4
20260830042703 65 156 3.0 10.0 0.01 0.52 0.52 75 1027.4